Flag for Morocco Weather past 2 weeks in Rabat, Morocco

Now
79 °F

Clear.


Feels Like: 81 °F
Forecast: 70 / 79 °F
Wind: 6 mph from Northwest

Location: Rabat-Sale

Current Time: Jul 28, 2015 at 7:52:15 PM

Latest Report: Jul 28, 2015 at 7:00 PM


Visibility: 5 mi

Pressure: 29.89 "Hg

Humidity: 65%

Dew point: 66 °F

Location of RabatLocation

Historic Weather in Rabat — Graph

°F

Rabat temperature yesterday

Maximum temperature yesterday: 82 °F (at 5:00 PM)
Minimum temperature yesterday: 63 °F (at 5:00 AM)
Average temperature yesterday: 75 °F

Past Weeks' High & Low Weather Summary

 TemperatureHumidityPressure
High95 °F (Jul 21, 2:30 PM)100% (Jul 28, 12:00 AM)30.07 "Hg (Jul 28, 12:00 AM)
Low59 °F (Jul 26, 6:00 AM)30% (Jul 21, 2:30 PM)29.83 "Hg (Jul 15, 4:30 PM)
Average75 °F73%29.97 "Hg
* Reported Jul 13 6:00 PM — Jul 28 7:00 PM, Rabat, Weather by CustomWeather, © 2015

Note: Actual official high and low records may vary slightly from our data, if they occured in-between our weather recording intervals... More about our weather records

Advertising

Rabat weather history for previous 24 hours

 ConditionsComfort  
Time TempWeatherWind HumidityBarometerVisibility
7:00 PM
Tue, Jul 28
79 °FClear.6 mph65%29.89 "Hg5 mi
6:30 PM81 °FScattered clouds.7 mph62%29.89 "Hg5 mi
6:00 PM81 °FScattered clouds.3 mph58%29.89 "Hg5 mi
5:00 PM81 °FScattered clouds.10 mph62%29.89 "Hg4 mi
4:30 PM81 °FScattered clouds.10 mph66%29.89 "Hg4 mi
4:00 PM81 °FScattered clouds.10 mph66%29.89 "Hg4 mi
3:30 PM81 °FScattered clouds.10 mph66%29.89 "Hg4 mi
3:00 PM81 °FScattered clouds.10 mph70%29.89 "Hg4 mi
2:30 PM81 °FScattered clouds.8 mph66%29.89 "Hg4 mi
2:00 PM81 °FScattered clouds.9 mph66%29.89 "Hg3 mi
1:30 PM81 °FScattered clouds.6 mph66%29.89 "Hg5 mi
12:30 PM81 °FScattered clouds.8 mph66%29.89 "Hg5 mi
12:00 PM79 °FScattered clouds.9 mph70%29.92 "Hg5 mi
11:30 AM79 °FScattered clouds.7 mph70%29.89 "Hg5 mi
11:00 AM79 °FScattered clouds.6 mph70%29.92 "Hg5 mi
10:30 AM77 °FScattered clouds.5 mph74%29.92 "Hg4 mi
10:00 AM81 °FScattered clouds.6 mph66%29.92 "Hg4 mi
9:30 AMN/AFog.3 mphN/A29.92 "Hg2 mi
9:00 AM72 °FFog.No wind94%29.92 "Hg1 mi
8:30 AM70 °FFog.2 mph100%29.92 "Hg0 mi
8:00 AM70 °FFog.3 mph100%29.92 "Hg0 mi
7:30 AM70 °FFog.3 mph100%29.92 "Hg0 mi
6:30 AM66 °FFog.No wind94%29.92 "Hg1 mi
6:00 AM66 °FFog.2 mph94%29.92 "Hg2 mi
5:30 AM64 °FFog.No wind94%29.92 "Hg2 mi
4:30 AM68 °FPassing clouds.2 mph88%29.92 "Hg3 mi
4:00 AM68 °FPassing clouds.2 mph88%29.92 "Hg3 mi
3:30 AM66 °FPassing clouds.No wind88%29.92 "Hg3 mi
3:00 AM66 °FClear.No wind88%29.92 "Hg3 mi
2:30 AM66 °FClear.No wind88%29.92 "Hg3 mi
2:00 AM68 °FMild.2 mph88%29.92 "Hg3 mi
1:30 AM70 °FClear.1 mph94%29.92 "Hg3 mi
1:00 AM70 °FClear.2 mph100%29.95 "Hg4 mi
12:30 AM70 °FClear.3 mph100%29.95 "Hg5 mi
12:00 AM70 °FClear.2 mph100%29.95 "Hg5 mi
11:30 PM
Mon, Jul 27
70 °FClear.2 mph94%29.95 "Hg5 mi
11:00 PM70 °FClear.No wind88%29.95 "Hg5 mi
10:30 PM73 °FClear.1 mph89%29.95 "Hg5 mi
10:00 PM73 °FClear.6 mph89%29.95 "Hg5 mi
9:30 PM75 °FClear.6 mph83%29.92 "Hg5 mi
9:00 PM75 °FClear.6 mph83%29.92 "Hg5 mi
8:30 PM77 °FClear.5 mph74%29.92 "HgN/A
8:00 PM79 °FPassing clouds.7 mph70%29.92 "HgN/A
7:30 PM79 °FClear.7 mph70%29.89 "HgN/A
7:00 PM81 °FSunny.10 mph62%29.89 "Hg10 mi
Weather by CustomWeather, © 2015

See weather overviewHow to use our weather pages